x

Rochester, Ny (rprn6) Weather Station

10:00pm - Sat 28th Feb 2015 All times are CST. -6 hours from GMT.

  • Wind
  • Air Temp 14°f
  • Sea Pressure 1038.9mb
  • Rochester, Ny
  • Rochester, Ny

More Historic Weather Station data

Upgrade to MSW Pro to gain access to the past 30 days of data for over 8000 Wavebouys and Weather Stations around the globe.

Join Pro

Comparision Forecast

View Surf forecast
   
Sat 02/28 10:00pm  -  3 mph 1038.9mb 14f
9:50pm 2 3 mph 1039.3mb 14f
9:40pm 3 6 mph 1039.3mb 14f
9:30pm 5
mph
1039.6mb 13f
9:20pm 2 3 mph 1039.3mb 13f
9:10pm 3 5 mph 1039.6mb 14f
9:00pm 5
mph
1040mb 14f
8:50pm  -  3 mph 1040mb 15f
8:40pm 5
mph
1040mb 14f
8:30pm 5
mph
1040mb 14f
8:20pm 3 6 mph 1040.3mb 13f
8:10pm 5 6 mph 1040.3mb 14f
8:00pm 5 6 mph 1040.3mb 15f
7:50pm 6
mph
1040.3mb 16f
7:40pm 5
mph
1040.6mb 16f
7:30pm 3 5 mph 1040.6mb 17f
7:20pm 5 6 mph 1040.6mb 17f
7:10pm 5
mph
1040.6mb 17f
7:00pm 5
mph
1040.6mb 17f
6:50pm 2 5 mph 1040.6mb 18f
6:40pm  -  3 mph 1040.6mb 19f
6:30pm 3 5 mph 1040.6mb 19f
6:20pm  -  3 mph 1040.3mb 19f
6:10pm 3 5 mph 1040.6mb 20f
6:00pm 5 6 mph 1040.6mb 20f
5:50pm 5 6 mph 1040.6mb 20f
5:40pm 2 5 mph 1040.6mb 20f
5:00pm 6 8 mph 1040.6mb 22f
4:50pm 7 9 mph 1041mb 22f
4:40pm 7 8 mph 1041mb 22f
4:30pm 5 10 mph 1041mb 23f
4:20pm 8 10 mph 1041mb 24f
4:10pm 8 9 mph 1041.3mb 24f
4:00pm 7 9 mph 1041.3mb 24f
3:50pm 5 10 mph 1041.3mb 24f
3:40pm 9 11 mph 1041.3mb 24f
3:30pm 7 13 mph 1041.3mb 24f
3:20pm 10 13 mph 1041.3mb 24f
3:10pm 5 13 mph 1041.3mb 23f
3:00pm 9 14 mph 1041.7mb 24f
2:50pm 8 11 mph 1041.7mb 23f
2:40pm 8 14 mph 1041.7mb 23f
2:30pm 7 11 mph 1041.7mb 23f
2:20pm 6 10 mph 1041.7mb 23f
2:10pm 9 14 mph 1041.7mb 23f
2:00pm 9 16 mph 1041.7mb 23f
1:50pm 10 13 mph 1042mb 22f
1:40pm 8 13 mph 1042mb 22f
1:30pm 7 14 mph 1042mb 22f
1:20pm 10 16 mph 1042mb 22f
1:10pm 8 18 mph 1042.3mb 22f
1:00pm 14 16 mph 1042.3mb 22f
12:50pm 9 16 mph 1042.3mb 21f
12:40pm 11 15 mph 1042.3mb 21f
12:30pm 9 13 mph 1042.7mb 22f
12:20pm 8 14 mph 1042.7mb 21f
12:10pm 8 13 mph 1042.7mb 21f
12:00pm 8 14 mph 1043mb 21f
11:50am 8 15 mph 1043mb 20f
11:40am 9 15 mph 1043.3mb 20f
11:30am 10 13 mph 1043.3mb 20f
11:20am 13 16 mph 1043.3mb 20f
11:10am 9 15 mph 1043.7mb 19f
11:00am 8 11 mph 1043.7mb 19f
10:50am 9 14 mph 1043.7mb 19f
10:40am 7 13 mph 1043.7mb 19f
10:30am 10 13 mph 1043.7mb 18f
10:20am 9 14 mph 1043.7mb 18f
10:10am 9 14 mph 1043.7mb 18f
10:00am 9 14 mph 1043.7mb 17f
9:50am 8 13 mph 1043.7mb 17f
9:40am 9 14 mph 1043.7mb 16f
9:30am 11 14 mph 1043.7mb 16f
9:20am 10 15 mph 1043.7mb 15f
9:10am 10 15 mph 1043.7mb 15f
9:00am 11 16 mph 1043.7mb 14f
8:50am 11 15 mph 1043.7mb 14f
8:40am 13 16 mph 1043.7mb 13f
8:30am 14 17 mph 1043.7mb 12f
8:20am 13 16 mph 1043.3mb 12f
8:10am 14 17 mph 1043.3mb 11f
8:00am 15 20 mph 1043.3mb 10f
7:50am 15 18 mph 1043.3mb 10f
7:40am 13 15 mph 1043.3mb 10f
7:30am 11 15 mph 1043.3mb 10f
7:20am 14 17 mph 1043mb 9f
7:10am 13 16 mph 1043mb 8f
7:00am 13 16 mph 1043mb 7f
6:50am 13 16 mph 1042.7mb 6f
6:40am 13 15 mph 1042.7mb 6f
6:30am 14 16 mph 1042.7mb 5f
6:20am 13 15 mph 1042.3mb 5f
6:10am 13 16 mph 1042.3mb 5f
6:00am 14 16 mph 1042.3mb 5f
5:50am 14 15 mph 1042mb 5f
5:40am 11 15 mph 1042mb 6f
5:30am 13 15 mph 1042mb 6f
5:20am 11 16 mph 1041.7mb 6f
5:10am 13 16 mph 1041.7mb 6f
5:00am 13 16 mph 1041.7mb 6f
4:50am 13 16 mph 1041.7mb 6f
4:40am 14 17 mph 1041.3mb 6f
4:30am 13 17 mph 1041.3mb 6f
4:20am 13 15 mph 1041.7mb 6f
4:10am 14 16 mph 1041.3mb 7f
4:00am 14 18 mph 1041.3mb 7f
3:50am 14 21 mph 1041.3mb 8f
3:40am 15 17 mph 1041.3mb 7f
3:30am 14 18 mph 1041mb 7f
3:20am 14 17 mph 1041mb 7f
3:10am 11 17 mph 1041mb 8f
3:00am 13 16 mph 1040.6mb 8f
2:50am 13 17 mph 1040.6mb 8f
2:40am 14 17 mph 1040.6mb 8f
2:30am 13 17 mph 1040.3mb 8f
2:20am 14 18 mph 1040.3mb 8f
2:10am 14 17 mph 1040.3mb 7f
2:00am 13 17 mph 1040.3mb 6f
1:50am 13 18 mph 1040.3mb 6f
1:40am 14 16 mph 1040.3mb 7f
1:30am 13 15 mph 1040.3mb 8f
1:20am 11 17 mph 1040.3mb 8f
1:10am 13 17 mph 1040.3mb 8f
1:00am 11 17 mph 1040.3mb 8f
12:50am 14 18 mph 1040.3mb 7f
12:40am 15 17 mph 1040mb 7f
12:30am 14 17 mph 1040.3mb 7f
12:20am 14 17 mph 1040mb 7f
12:10am 11 15 mph 1040mb 7f
12:00am 10 16 mph 1039.6mb 7f
Fri 02/27 11:50pm 10 14 mph 1039.6mb 7f
11:40pm 11 16 mph 1039.6mb 7f
11:30pm 10 16 mph 1039.3mb 8f
11:20pm 11 15 mph 1039.3mb 8f
11:10pm 11 17 mph 1039.6mb 8f
11:00pm 13 16 mph 1039.3mb 8f
10:50pm 13 17 mph 1038.9mb 8f
10:40pm 11 17 mph 1039.3mb 8f
10:30pm 13 17 mph 1039.3mb 8f
10:20pm 13 17 mph 1038.9mb 8f
10:10pm 14 18 mph 1038.9mb 8f
10:00pm 13 18 mph 1038.9mb 8f
9:50pm 11 17 mph 1038.9mb 8f
9:40pm 13 16 mph 1038.9mb 8f
9:30pm 13 16 mph 1038.9mb 8f
9:20pm 14 17 mph 1038.6mb 8f
9:10pm 11 15 mph 1038.6mb 9f
9:00pm 13 17 mph 1038.6mb 9f
8:50pm 11 17 mph 1038.6mb 9f
8:40pm 11 20 mph 1038.3mb 9f
8:30pm 14 20 mph 1037.9mb 9f
8:20pm 10 17 mph 1037.9mb 9f
8:10pm 11 17 mph 1037.9mb 9f
8:00pm 10 16 mph 1037.6mb 9f
7:50pm 13 16 mph 1037.6mb 9f
7:40pm 11 18 mph 1037.6mb 9f
7:30pm 10 16 mph 1037.3mb 9f
7:20pm 10 17 mph 1037.3mb 9f
7:10pm 11 16 mph 1037.3mb 10f
7:00pm 10 15 mph 1036.9mb 10f
6:50pm 13 16 mph 1036.9mb 10f
6:40pm 11 15 mph 1036.9mb 10f
6:30pm 9 17 mph 1036.9mb 10f
6:20pm 14 17 mph 1036.9mb 10f
6:10pm 11 17 mph 1036.6mb 10f
6:00pm 10 18 mph 1036.6mb 11f
5:50pm 10 17 mph 1036.6mb 11f
5:40pm 11 17 mph 1036.6mb 11f
5:30pm 14 20 mph 1036.2mb 11f
5:20pm 13 17 mph 1036.2mb 11f
5:10pm 11 17 mph 1036.2mb 11f
5:00pm 11 16 mph 1036.2mb 12f
4:50pm 10 21 mph 1035.9mb 12f
4:40pm 11 15 mph 1035.9mb 12f
4:30pm 9 21 mph 1035.9mb 13f
4:20pm 13 18 mph 1035.6mb 13f
4:10pm 9 18 mph 1035.6mb 13f
4:00pm 14 20 mph 1035.2mb 13f
3:50pm 14 20 mph 1035.2mb 14f
3:40pm 13 21 mph 1035.2mb 14f
3:30pm 14 18 mph 1034.9mb 14f
3:20pm 15 20 mph 1034.9mb 14f
3:10pm 10 15 mph 1034.9mb 15f
3:00pm 11 17 mph 1034.9mb 14f
2:50pm 9 18 mph 1034.5mb 15f
2:40pm 14 21 mph 1034.5mb 14f
2:30pm 11 20 mph 1034.5mb 15f
2:20pm 14 17 mph 1034.2mb 15f
2:10pm 13 20 mph 1034.2mb 15f
2:00pm 16 20 mph 1033.9mb 15f
1:50pm 14 20 mph 1033.9mb 14f
1:40pm 13 18 mph 1033.9mb 14f
1:30pm 15 18 mph 1033.5mb 14f
1:20pm 13 18 mph 1033.9mb 14f
1:10pm 13 18 mph 1033.9mb 14f
1:00pm 14 20 mph 1033.5mb 14f
12:50pm 14 21 mph 1033.2mb 14f
12:40pm 15 20 mph 1033.2mb 14f
12:30pm 16 21 mph 1033.2mb 14f
12:20pm 14 20 mph 1033.2mb 14f
12:10pm 15 18 mph 1033.2mb 14f
12:00pm 14 17 mph 1033.2mb 14f
11:50am 13 21 mph 1033.5mb 14f
11:40am 11 18 mph 1033.5mb 14f
11:30am 13 18 mph 1033.5mb 14f
11:20am 9 17 mph 1033.5mb 13f
11:10am 14 18 mph 1033.5mb 13f
11:00am 13 18 mph 1033.5mb 13f
10:50am 11 17 mph 1033.5mb 13f
10:40am 13 17 mph 1033.5mb 13f
10:30am 13 17 mph 1033.2mb 13f
10:20am 14 16 mph 1033.2mb 13f
10:10am 13 17 mph 1033.2mb 12f
10:00am 13 18 mph 1033.2mb 13f
9:50am 11 17 mph 1032.8mb 13f
9:40am 14 17 mph 1032.8mb 12f
9:30am 13 16 mph 1032.8mb 12f
9:20am 10 15 mph 1032.8mb 12f
9:10am 10 15 mph 1032.5mb 12f
9:00am 13 15 mph 1032.5mb 12f
8:50am 11 15 mph 1032.5mb 12f
8:40am 11 15 mph 1032.5mb 12f
8:30am 9 16 mph 1032.2mb 11f
8:20am 13 16 mph 1032.2mb 11f
8:10am 13 15 mph 1032.2mb 11f
8:00am 9 14 mph 1032.2mb 11f
7:50am 10 14 mph 1032.2mb 10f
7:40am 10 14 mph 1032.2mb 10f
7:30am 9 15 mph 1032.2mb 9f
7:20am 11 14 mph 1031.8mb 9f
7:10am 10 14 mph 1031.5mb 8f
7:00am 10 15 mph 1031.2mb 8f
6:50am 10 14 mph 1030.8mb 7f
6:40am 10 15 mph 1030.5mb 7f
6:30am 11 15 mph 1030.5mb 7f
6:20am 11 15 mph 1030.1mb 7f
6:10am 10 14 mph 1030.1mb 7f
6:00am 10 14 mph 1029.8mb 7f
5:50am 10 14 mph 1029.8mb 7f
5:40am 10 14 mph 1029.5mb 8f
5:30am 10 15 mph 1029.5mb 8f
5:20am 10 14 mph 1029.1mb 8f
5:10am 10 13 mph 1029.1mb 8f
5:00am 11 13 mph 1029.1mb 8f
4:50am 10 13 mph 1028.8mb 8f
4:40am 10 14 mph 1028.8mb 8f
4:30am 9 13 mph 1028.4mb 8f
4:20am 9 11 mph 1028.1mb 8f
4:10am 9 11 mph 1028.1mb 8f
4:00am 9 11 mph 1028.1mb 8f
3:50am 9 11 mph 1027.8mb 8f
3:40am 10 14 mph 1027.4mb 9f
3:30am 10 13 mph 1027.4mb 9f
3:20am 9 13 mph 1027.4mb 9f
3:10am 10 13 mph 1027.1mb 9f
3:00am 9 11 mph 1027.1mb 9f
2:50am 9 11 mph 1027.1mb 9f
2:40am 8 10 mph 1027.1mb 10f
2:30am 9 13 mph 1027.1mb 10f
2:20am 9 13 mph 1027.1mb 10f
2:10am 8 13 mph 1026.8mb 10f
2:00am 9 11 mph 1026.8mb 10f
1:50am 9 13 mph 1026.8mb 11f
1:40am 10 14 mph 1026.8mb 11f
1:30am 10 15 mph 1026.8mb 11f
1:20am 10 13 mph 1026.8mb 11f
1:10am 10 14 mph 1026.8mb 11f
1:00am 11 15 mph 1026.8mb 11f
12:50am 10 14 mph 1026.4mb 12f
12:40am 10 15 mph 1026.4mb 12f
12:30am 11 15 mph 1026.1mb 12f
12:20am 9 14 mph 1025.7mb 12f
12:10am 9 13 mph 1025.7mb 11f
12:00am 10 16 mph 1025.7mb 12f
Thu 02/26 11:50pm 10 14 mph 1025.7mb 12f
11:40pm 10 14 mph 1025.4mb 12f
11:30pm 10 11 mph 1025.7mb 11f
11:20pm 8 10 mph 1025.7mb 11f
11:10pm 9 11 mph 1025.7mb 11f
11:00pm 8 10 mph 1025.4mb 11f
10:50pm 8 11 mph 1025.4mb 11f
10:40pm 9 10 mph 1025.1mb 11f
10:30pm 9 11 mph 1025.1mb 11f
10:20pm 7 10 mph 1025.1mb 11f
10:10pm 8 10 mph 1025.1mb 11f
10:00pm 8 9 mph 1025.1mb 12f
9:50pm 7 9 mph 1025.1mb 12f
9:40pm 7 8 mph 1025.1mb 11f
9:30pm 7 9 mph 1025.1mb 12f
9:20pm 6 8 mph 1025.1mb 12f
9:10pm 6 8 mph 1025.1mb 11f
9:00pm 6 8 mph 1025.1mb 12f
8:50pm 6 8 mph 1025.1mb 12f
8:40pm 6 8 mph 1024.7mb 12f
8:30pm 7 8 mph 1024.7mb 12f
8:20pm 7 8 mph 1024.7mb 12f
8:10pm 6 7 mph 1024.4mb 12f
8:00pm 6 7 mph 1024.4mb 12f
7:50pm 6 7 mph 1024.4mb 12f
7:40pm 5 6 mph 1024mb 12f
7:30pm 5 6 mph 1024mb 12f
7:20pm 6 7 mph 1023.7mb 13f
7:10pm 6 8 mph 1023.7mb 13f
7:00pm 6 8 mph 1023.7mb 13f
6:50pm 6 10 mph 1023.4mb 13f
6:40pm 6 10 mph 1023.4mb 13f
6:30pm 8 11 mph 1023mb 13f
6:20pm 8 9 mph 1023.4mb 13f
6:10pm 6 10 mph 1023mb 13f
6:00pm 8 10 mph 1023mb 13f
5:50pm 7 10 mph 1022.7mb 12f
5:40pm 7 9 mph 1022.7mb 12f
5:30pm 8 9 mph 1022.4mb 12f
5:20pm 8 10 mph 1022.4mb 12f
5:10pm 8 10 mph 1022.4mb 12f
5:00pm 7 9 mph 1022mb 12f
4:50pm 8 10 mph 1022mb 12f
4:40pm 7 9 mph 1022mb 12f
4:30pm 8 10 mph 1022mb 12f
4:20pm 9 10 mph 1021.7mb 12f
4:10pm 9 11 mph 1021.7mb 12f
4:00pm 9 11 mph 1021.7mb 12f
3:50pm 10 13 mph 1021.7mb 12f
3:40pm 9 13 mph 1022mb 13f
3:30pm 10 15 mph 1021.7mb 13f
3:20pm 10 13 mph 1021.7mb 13f
3:10pm 9 14 mph 1021.3mb 13f
3:00pm 13 16 mph 1021.3mb 13f
2:50pm 7 14 mph 1021.3mb 13f
2:40pm 10 13 mph 1021.3mb 13f
2:30pm 13 15 mph 1021.3mb 13f
2:20pm 10 14 mph 1021mb 13f
2:10pm 10 17 mph 1021mb 13f
2:00pm 11 15 mph 1021mb 13f
1:50pm 8 14 mph 1020.7mb 13f
1:40pm 11 15 mph 1020.7mb 13f
1:30pm 10 17 mph 1020.7mb 13f
1:20pm 14 17 mph 1020.3mb 13f
1:10pm 11 16 mph 1020.7mb 13f
1:00pm 14 18 mph 1020.7mb 13f
12:50pm 14 17 mph 1020.3mb 13f
12:40pm 14 17 mph 1020.3mb 13f
12:30pm 13 17 mph 1020.3mb 13f
12:20pm 13 16 mph 1020.3mb 13f
12:10pm 13 17 mph 1020.7mb 13f
12:00pm 14 17 mph 1020.7mb 13f
11:50am 14 17 mph 1020.7mb 13f
11:40am 14 17 mph 1020.7mb 13f
11:30am 13 16 mph 1021mb 13f
11:20am 14 17 mph 1021mb 13f
11:10am 13 17 mph 1021mb 13f
11:00am 14 20 mph 1021mb 13f
10:50am 14 20 mph 1021mb 13f
10:40am 14 18 mph 1021mb 13f
10:30am 10 16 mph 1021mb 13f
10:20am 10 15 mph 1021mb 13f
10:10am 11 13 mph 1021mb 13f
10:00am 9 15 mph 1021mb 13f
9:50am 9 13 mph 1020.7mb 13f
9:40am 9 15 mph 1021mb 12f
9:30am 9 14 mph 1020.7mb 12f
9:20am 8 11 mph 1020.7mb 12f
9:10am 7 11 mph 1021mb 12f
9:00am 9 11 mph 1021mb 12f
8:50am 7 14 mph 1021mb 12f
8:40am 8 13 mph 1021mb 12f
8:30am 7 11 mph 1021mb 12f
8:20am 10 13 mph 1021mb 12f
8:10am 10 14 mph 1021mb 12f
8:00am 11 15 mph 1021mb 12f
7:50am 14 16 mph 1020.7mb 12f
7:40am 10 13 mph 1020.7mb 13f
7:30am 9 13 mph 1020.7mb 13f
7:20am 9 13 mph 1020.3mb 13f
7:10am 7 10 mph 1020.3mb 13f
7:00am 5 9 mph 1020.3mb 13f
6:50am 6 9 mph 1020.3mb 13f
6:40am 6 8 mph 1020.3mb 13f
6:30am 5 8 mph 1020.3mb 13f
6:20am 6 8 mph 1020.3mb 13f
6:10am 3 7 mph 1020mb 12f
6:00am 2 8 mph 1020.3mb 12f
5:50am 7 10 mph 1020mb 12f
5:40am 9 13 mph 1020mb 12f
5:30am 8 13 mph 1019.6mb 12f
5:20am 7 11 mph 1019.6mb 12f
5:10am 9 14 mph 1019.6mb 12f
5:00am 10 14 mph 1019.6mb 12f
4:50am 7 13 mph 1019.6mb 12f
4:40am 9 13 mph 1019.6mb 12f
4:30am 9 11 mph 1019.6mb 12f
4:20am 9 11 mph 1019.6mb 12f
4:10am 7 14 mph 1020mb 11f
4:00am 11 15 mph 1019.6mb 12f
3:50am 9 16 mph 1019.6mb 11f
3:40am 13 17 mph 1019.6mb 11f
3:30am 13 18 mph 1019.6mb 11f
3:20am 10 18 mph 1019.6mb 11f
3:10am 13 18 mph 1020mb 12f
3:00am 16 18 mph 1020mb 12f
2:50am 10 18 mph 1020mb 13f
2:40am 11 14 mph 1020.3mb 13f
2:30am 10 18 mph 1020mb 13f
2:20am 15 16 mph 1020mb 13f
2:10am 13 15 mph 1020mb 13f
2:00am 10 16 mph 1020mb 13f
1:50am 13 16 mph 1020mb 13f
1:40am 13 18 mph 1020mb 13f
1:30am 14 21 mph 1020mb 13f
1:20am 15 20 mph 1020mb 13f
1:10am 14 17 mph 1020mb 13f
1:00am 15 17 mph 1020mb 13f
12:50am 16 20 mph 1020.3mb 13f
12:40am 15 22 mph 1020.3mb 14f
12:30am 15 21 mph 1020.3mb 14f
12:20am 13 17 mph 1020mb 13f
12:10am 13 16 mph 1020.3mb 13f
12:00am 7 10 mph 1020.7mb 13f
Wed 02/25 11:50pm 9 13 mph 1020.3mb 12f
11:40pm 8 13 mph 1020.3mb 12f
11:30pm 7 9 mph 1020.3mb 12f
11:20pm 8 9 mph 1020.3mb 12f
11:10pm 8 9 mph 1020.3mb 12f
11:00pm 7 10 mph 1020.3mb 12f
10:50pm 8 10 mph 1020.3mb 12f
10:40pm 8 11 mph 1020mb 12f
10:30pm 9 13 mph 1020mb 12f
10:20pm 8 11 mph 1020mb 12f
10:10pm 7 11 mph 1020mb 12f
10:00pm 8 10 mph 1020.3mb 12f
9:50pm 9 11 mph 1020.3mb 12f
9:40pm 9 11 mph 1020.3mb 12f
9:30pm 9 13 mph 1020.3mb 12f
9:20pm 10 14 mph 1020.3mb 12f
9:10pm 9 13 mph 1020.3mb 13f
9:00pm 9 14 mph 1020.7mb 12f
8:50pm 9 11 mph 1020.3mb 13f
8:40pm 8 11 mph 1020.3mb 13f
8:30pm 8 10 mph 1020mb 13f
8:20pm 8 10 mph 1020mb 13f
8:10pm 9 11 mph 1019.6mb 13f
8:00pm 8 10 mph 1019.3mb 13f
7:50pm 7 11 mph 1019.3mb 13f
7:40pm 9 14 mph 1019.3mb 13f
7:30pm 10 14 mph 1019.3mb 13f
7:20pm 11 14 mph 1019mb 14f
7:10pm 11 15 mph 1019mb 14f
7:00pm 10 14 mph 1019mb 14f
6:50pm 11 17 mph 1019mb 14f
6:40pm 11 16 mph 1019mb 14f
6:30pm 11 15 mph 1018.6mb 14f
6:20pm 13 20 mph 1018.6mb 14f
6:10pm 11 16 mph 1018.6mb 14f
6:00pm 10 15 mph 1018.3mb 14f
5:50pm 9 14 mph 1017.9mb 14f
5:40pm 10 14 mph 1017.9mb 14f
5:30pm 9 14 mph 1017.6mb 14f
5:20pm 9 13 mph 1017.6mb 15f
5:10pm 10 15 mph 1017.3mb 15f
5:00pm 8 14 mph 1017.3mb 16f
4:50pm 10 14 mph 1016.9mb 16f
4:40pm 9 17 mph 1017.3mb 16f
4:30pm 14 17 mph 1017.3mb 16f
4:20pm 13 16 mph 1016.9mb 17f
4:10pm 14 18 mph 1016.6mb 17f
4:00pm 14 17 mph 1016.6mb 17f
3:50pm 10 16 mph 1016.9mb 17f
3:40pm 13 24 mph 1016.9mb 17f
3:30pm 14 18 mph 1016.6mb 17f
3:20pm 15 18 mph 1016.6mb 17f
3:10pm 13 22 mph 1016.3mb 17f
3:00pm 11 18 mph 1016.3mb 17f
2:50pm 14 20 mph 1015.9mb 17f
2:40pm 14 22 mph 1015.9mb 17f
2:30pm 15 22 mph 1015.6mb 18f
2:20pm 15 22 mph 1015.9mb 18f
2:10pm 16 24 mph 1015.6mb 18f
2:00pm 20 23 mph 1015.2mb 17f
1:50pm 18 24 mph 1015.2mb 17f
1:40pm 16 22 mph 1015.6mb 18f
1:30pm 18 25 mph 1015.2mb 18f
1:20pm 15 26 mph 1014.9mb 17f
1:10pm 17 25 mph 1014.9mb 17f
1:00pm 20 23 mph 1014.6mb 18f
12:50pm 16 23 mph 1014.2mb 18f
12:40pm 14 26 mph 1013.9mb 17f
12:30pm 18 23 mph 1013.9mb 17f
12:20pm 18 25 mph 1013.9mb 17f
12:10pm 17 25 mph 1014.2mb 17f
12:00pm 14 21 mph 1013.5mb 18f
11:50am 16 24 mph 1013.5mb 17f
11:40am 20 26 mph 1013.5mb 17f
11:30am 16 23 mph 1013.5mb 17f
11:20am 21 25 mph 1013.5mb 17f
11:10am 16 24 mph 1013.5mb 17f
11:00am 22 26 mph 1013.2mb 17f
10:50am 22 29 mph 1013.2mb 17f
10:40am 18 28 mph 1012.9mb 17f
10:30am 24 28 mph 1012.9mb 17f
10:20am 20 28 mph 1012.5mb 17f
10:10am 20 29 mph 1012.9mb 17f
10:00am 24 31 mph 1012.5mb 17f
9:50am 22 31 mph 1012.5mb 17f
9:40am 21 29 mph 1012.2mb 17f
9:30am 22 31 mph 1012.2mb 17f
9:20am 22 30 mph 1012.2mb 17f
9:10am 23 30 mph 1011.9mb 17f
9:00am 23 34 mph 1011.5mb 17f
8:50am 17 28 mph 1011.5mb 17f
8:40am 15 29 mph 1011.5mb 18f
8:30am 20 30 mph 1011.2mb 18f
8:20am 20 29 mph 1010.8mb 18f
8:10am 17 32 mph 1011.2mb 18f
8:00am 21 33 mph 1010.5mb 18f
7:50am 26 39 mph 1010.2mb 18f
7:40am 18 26 mph 1009.8mb 19f
7:30am 23 36 mph 1009.5mb 19f
7:20am 24 31 mph 1009.1mb 20f
7:10am 22 32 mph 1008.5mb 20f
7:00am 29 33 mph 1008.1mb 20f
6:50am 21 29 mph 1007.8mb 21f
6:40am 20 31 mph 1007.8mb 22f
6:30am 21 37 mph 1007.5mb 22f
6:20am 18 30 mph 1007.1mb 23f
6:10am 21 31 mph 1006.8mb 23f
6:00am 20 28 mph 1006.1mb 23f
5:50am 18 25 mph 1006.4mb 23f
5:40am 17 20 mph 1006.1mb 23f
5:30am 15 21 mph 1006.1mb 23f
5:20am 16 24 mph 1005.8mb 23f
5:10am 16 23 mph 1005.8mb 23f